Danbury, CT

1:38 PM EDT on October 21, 2017 (GMT -0400)
Danbury Municipal

Weather History for KDXR - March, 2014

Change the Weather History Date:

Wednesday, March 12, 2014

  Actual Average Record
Temperature  
Mean Temperature 39 °F -  
Max Temperature 51 °F 43 °F 71 °F (2012)
Min Temperature 26 °F 27 °F 4 °F (1984)
Degree Days  
Heating Degree Days 26    
Moisture  
Dew Point 35 °F    
Average Humidity 81    
Maximum Humidity 93    
Minimum Humidity 56    
Precipitation  
Precipitation 0.19 in - - ()
Sea Level Pressure  
Sea Level Pressure 29.25 in    
Wind  
Wind Speed 3 mph (North)    
Max Wind Speed 16 mph    
Max Gust Speed 26 mph    
Visibility 6 miles    
Events Fog , Rain    
Averages and records for this station are not official NWS values.
T = Trace of Precipitation, MM = Missing Value Source: NWS Daily Summary

Daily Weather History Graph

Daily Weather History Graph

Search for Another Location

Airport or City:

Trip Planner

Search our weather history database for the weather conditions in past years. The results will help you decide how hot, cold, wet, or windy it might be!

Date:

Astronomy

Mar. 12, 2014 Rise Set
Actual Time 7:10 AM EDT 6:57 PM EDT
Civil Twilight 6:43 AM EDT 7:24 PM EDT
Nautical Twilight 6:11 AM EDT 7:56 PM EDT
Astronomical Twilight 5:38 AM EDT 8:29 PM EDT
Moon 3:23 PM EDT (3/12) 4:42 AM EDT (3/12)
Length of Visible Light 12h 41m
Length of Day
11h 46m
Waxing Gibbous, 85% of the Moon is Illuminated
Mar 12
Waxing Gibbous
Mar 16
Full
Mar 23
Last Quarter
Mar 30
New
Apr 7
First Quarter

Hourly Weather History & Observations

Time (EDT) Temp. Windchill Dew Point Humidity Pressure Visibility Wind Dir Wind Speed Gust Speed Precip Events Conditions
12:53 AM 37.0 °F - 28.0 °F 70% 29.71 in 10.0 mi Calm Calm - N/A   Mostly Cloudy
1:53 AM 35.1 °F - 28.0 °F 76% 29.70 in 10.0 mi Calm Calm - N/A   Overcast
2:53 AM 37.0 °F - 28.9 °F 73% 29.69 in 10.0 mi Calm Calm - N/A   Overcast
3:53 AM 37.0 °F - 28.9 °F 73% 29.65 in 10.0 mi Calm Calm - N/A   Scattered Clouds
4:53 AM 36.0 °F - 28.9 °F 76% 29.64 in 10.0 mi Calm Calm - N/A   Overcast
5:53 AM 37.0 °F - 28.9 °F 73% 29.63 in 10.0 mi Calm Calm - N/A   Clear
6:53 AM 37.0 °F - 28.9 °F 73% 29.62 in 10.0 mi Calm Calm - N/A   Clear
7:53 AM 39.0 °F - 28.0 °F 65% 29.59 in 10.0 mi Calm Calm - N/A   Mostly Cloudy
8:53 AM 41.0 °F 36.4 °F 27.0 °F 57% 29.57 in 10.0 mi NNE 6.9 mph - N/A   Partly Cloudy
9:41 AM 43.0 °F 40.3 °F 28.9 °F 58% 29.55 in 10.0 mi East 4.6 mph - N/A   Mostly Cloudy
9:53 AM 43.0 °F 38.8 °F 28.9 °F 58% 29.56 in 10.0 mi NE 6.9 mph - N/A   Mostly Cloudy
10:45 AM 46.0 °F 42.5 °F 30.9 °F 56% 29.48 in 10.0 mi ENE 6.9 mph - N/A   Mostly Cloudy
10:53 AM 46.0 °F 41.0 °F 30.9 °F 56% 29.47 in 10.0 mi ENE 10.4 mph - N/A   Mostly Cloudy
11:53 AM 50.0 °F - 37.9 °F 63% 29.41 in 9.0 mi SE 9.2 mph - N/A   Mostly Cloudy
12:53 PM 50.0 °F - 39.0 °F 66% 29.34 in 10.0 mi East 8.1 mph - 0.00 in   Overcast
1:53 PM 50.0 °F - 41.0 °F 71% 29.28 in 9.0 mi East 8.1 mph - N/A   Overcast
2:53 PM 48.9 °F - 43.0 °F 80% 29.21 in 8.0 mi ENE 6.9 mph - 0.00 in Rain Light Rain
3:53 PM 50.0 °F - 44.1 °F 80% 29.18 in 7.0 mi NNE 4.6 mph - 0.00 in Rain Light Rain
4:53 PM 46.0 °F - 43.0 °F 89% 29.13 in 4.0 mi Calm Calm - 0.00 in Rain Light Rain
5:53 PM 45.0 °F - 41.0 °F 86% 29.09 in 2.0 mi Calm Calm - 0.01 in Rain Light Rain
5:59 PM 44.1 °F - 41.0 °F 89% 29.09 in 1.0 mi Calm Calm - 0.02 in Rain Rain
6:17 PM 43.0 °F - 41.0 °F 93% 29.08 in 0.8 mi Calm Calm - 0.03 in Rain Light Rain
6:45 PM 44.1 °F - 42.1 °F 93% 29.06 in 1.2 mi Calm Calm - 0.08 in Rain Light Rain
6:53 PM 44.1 °F - 42.1 °F 93% 29.07 in 3.0 mi Calm Calm - 0.08 in Rain Light Rain
7:03 PM 44.1 °F - 42.1 °F 93% 29.06 in 1.0 mi Calm Calm - 0.00 in Rain Light Rain
7:10 PM 43.0 °F - 41.0 °F 93% 29.05 in 0.5 mi Calm Calm - 0.00 in Fog Fog
7:15 PM 43.0 °F - 41.0 °F 93% 29.04 in 1.2 mi Calm Calm - 0.00 in   Overcast
7:23 PM 44.1 °F 41.5 °F 42.1 °F 93% 29.03 in 2.0 mi ESE 4.6 mph - 0.00 in Rain Light Rain
7:40 PM 43.0 °F - 41.0 °F 93% 29.03 in 0.8 mi Calm Calm - 0.00 in   Overcast
7:53 PM 43.0 °F 41.3 °F 41.0 °F 93% 29.03 in 1.2 mi SE 3.5 mph - 0.00 in   Overcast
8:07 PM 43.0 °F - 41.0 °F 93% 29.03 in 1.0 mi Calm Calm - 0.01 in Rain Rain
8:16 PM 44.1 °F 40.1 °F 41.0 °F 89% 29.05 in 0.8 mi WNW 6.9 mph - 0.02 in Rain Light Rain
8:22 PM 46.0 °F 41.0 °F 43.0 °F 89% 29.05 in 1.2 mi WNW 10.4 mph 17.3 mph 0.04 in Rain Rain
8:33 PM 44.1 °F 40.8 °F 42.1 °F 93% 29.04 in 3.0 mi NW 5.8 mph - 0.06 in Rain Light Rain
8:41 PM 43.0 °F 38.2 °F 39.9 °F 89% 29.05 in 6.0 mi West 8.1 mph - 0.06 in Rain Light Rain
8:53 PM 41.0 °F 35.8 °F 37.9 °F 89% 29.05 in 9.0 mi WNW 8.1 mph - 0.06 in   Overcast
9:12 PM 39.0 °F 34.0 °F 36.0 °F 89% 29.05 in 8.0 mi NW 6.9 mph - 0.00 in Rain Light Rain
9:24 PM 39.0 °F 35.7 °F 36.0 °F 89% 29.05 in 10.0 mi West 4.6 mph - 0.00 in   Overcast
9:53 PM 37.9 °F 33.5 °F 34.0 °F 86% 29.07 in 7.0 mi West 5.8 mph - 0.01 in Rain Light Rain
10:09 PM 37.0 °F 34.5 °F 34.0 °F 89% 29.05 in 6.0 mi NW 3.5 mph - 0.00 in Rain Light Rain
10:25 PM 36.0 °F 28.5 °F 33.1 °F 89% 29.06 in 8.0 mi NW 10.4 mph - 0.01 in Rain Light Rain
10:53 PM 34.0 °F 25.5 °F 30.0 °F 85% 29.10 in 7.0 mi NW 11.5 mph 19.6 mph 0.03 in Rain Light Rain
11:13 PM 28.9 °F 17.3 °F 25.0 °F 85% 29.12 in 10.0 mi NNW 16.1 mph 26.5 mph 0.00 in   Overcast
11:21 PM 28.0 °F 18.1 °F 23.0 °F 81% 29.13 in 10.0 mi NNW 11.5 mph 24.2 mph 0.00 in   Overcast
11:53 PM 26.1 °F 15.0 °F 19.0 °F 75% 29.17 in 10.0 mi NW 12.7 mph 23.0 mph 0.00 in   Overcast